Wind_Speed
8 9 12 12 14 16 17 18 16 16 18 19 20 21 21 21 21 21 21 22 22 23 24 25 26 26 27 28 28 28 29 29 29 30 30 31 32 32 33 34 35 36 36
9 11 12 14 15 16 18 18 17 15 17 18 19 20 21 22 22 22 23 23 24 26 27 28 29 30 31 31 32 32 33 33 34 34 35 36 36 37 37 38 39 39 40
10 11 13 14 15 16 17 17 16 15 16 17 19 20 22 23 23 23 24 26 27 28 29 30 32 32 33 34 35 36 36 37 38 38 39 40 40 41 42 43 43 44 44
12 12 14 14 15 16 16 16 15 14 14 16 19 20 22 24 25 25 25 26 27 28 30 31 32 33 34 35 36 38 39 40 41 42 43 44 45 45 46 47 48 49 49
14 14 15 16 16 17 16 15 13 14 13 14 17 19 21 23 24 26 25 25 26 27 28 29 31 33 34 35 37 38 40 41 43 44 46 47 49 50 51 52 53 54 55
17 18 18 18 18 17 16 15 14 14 14 14 15 16 17 18 20 22 23 23 24 26 27 30 31 33 35 37 39 40 42 44 46 47 49 51 53 55 57 58 59 60 61
21 22 21 21 20 19 17 16 15 15 16 15 15 15 16 18 20 22 23 24 25 27 28 31 33 35 37 39 42 44 46 47 49 52 54 56 58 60 62 64 65 66 67
24 24 25 23 23 22 19 18 17 17 17 17 17 17 18 19 20 21 24 26 28 29 32 34 36 38 41 43 45 47 50 52 55 57 60 62 64 66 68 70 71 72 73
27 27 28 27 26 23 21 21 20 20 21 20 21 21 22 22 24 25 27 29 31 33 36 38 41 43 45 48 50 53 55 58 60 63 65 68 70 72 73 75 76 77 78
29 30 30 30 27 25 24 24 24 24 24 25 25 25 26 27 28 29 32 34 36 38 41 44 46 49 51 54 56 59 61 64 66 69 71 73 74 76 77 78 79 79 80
31 31 32 30 28 27 27 27 28 28 28 28 29 30 31 32 33 34 36 38 41 43 46 49 51 54 56 59 62 65 67 70 72 74 76 77 78 78 79 79 79 79 79
33 32 32 31 31 30 30 31 31 32 32 33 34 35 36 37 38 40 41 43 45 48 51 54 56 59 61 64 67 69 72 73 75 76 77 78 78 78 78 78 78 78 78
31 32 33 33 33 33 33 34 34 35 36 37 38 39 40 42 43 45 46 47 49 52 55 58 61 63 65 68 70 72 73 74 75 76 76 77 77 77 77 77 77 76 75
34 34 34 35 34 34 36 37 38 39 40 41 42 44 45 46 47 49 50 52 53 55 58 61 64 66 68 69 71 71 72 73 74 74 75 76 76 75 75 73 72 70 69
36 36 38 37 37 38 40 41 42 43 44 45 46 48 49 50 51 52 54 55 56 58 59 61 64 66 68 69 70 71 71 71 72 73 73 73 72 70 69 67 65 63 61
38 39 39 40 41 42 44 45 46 47 48 49 50 51 53 53 53 55 56 57 58 59 61 63 65 66 66 67 68 69 69 70 70 69 68 66 63 61 59 58 57 55 54
41 42 43 44 46 47 48 48 49 50 51 52 54 54 55 55 56 56 58 59 60 61 62 63 65 65 66 66 67 67 67 66 63 61 59 57 56 54 53 51 50 49 48
45 46 47 49 50 51 52 52 53 54 55 56 55 55 55 55 56 57 58 59 61 62 62 62 62 63 63 63 63 61 59 57 55 53 52 51 49 47 45 44 44 43 43
50 51 52 54 55 56 57 57 57 57 57 56 55 55 55 55 56 57 58 60 61 61 61 60 59 59 58 57 54 53 51 50 49 48 46 45 43 42 42 40 40 39 40
54 55 56 57 58 59 59 59 59 57 56 55 54 54 55 55 56 58 59 59 59 58 58 56 54 53 51 50 48 47 45 45 44 43 42 42 41 39 39 38 37 37 36
57 58 58 59 59 59 59 58 57 56 55 54 54 54 55 55 56 57 57 56 55 54 52 50 49 46 45 44 43 42 41 40 40 40 39 38 37 36 36 36 35 35 34
57 58 59 58 57 56 55 54 54 53 52 52 52 53 53 54 54 55 54 52 50 48 47 45 42 40 38 37 36 37 36 35 34 34 34 34 33 34 34 34 33 33 32
54 53 53 52 52 52 51 51 51 50 51 51 51 51 51 51 50 50 48 47 46 44 41 37 34 33 32 31 32 31 31 31 32 31 29 29 30 30 30 29 28 28 28
48 48 47 47 48 48 48 48 48 48 48 48 48 48 48 47 46 45 43 42 40 38 34 31 29 28 28 28 29 29 29 29 29 28 26 25 25 25 25 24 23 23 23
46 46 46 47 47 47 47 47 47 46 46 46 46 45 43 43 42 40 38 36 34 30 27 25 24 24 25 26 26 26 26 26 26 26 25 23 23 23 23 21 20 20 19
45 45 45 45 45 45 46 46 45 45 44 44 43 41 39 38 36 34 30 28 25 22 21 21 21 22 23 24 24 24 24 24 24 23 23 23 22 21 22 22 20 18 17
Wind_Direction
13 2 358 351 345 341 339 333 320 301 290 290 289 288 284 279 276 275 273 272 271 271 272 272 271 271 271 271 271 270 269 269 269 270 271 272 273 273 273 273 273 273 272
4 1 357 352 348 346 344 340 330 314 300 295 292 287 281 280 278 275 273 271 271 272 273 274 274 273 273 272 271 270 270 271 271 271 272 273 273 273 273 273 273 272 272
350 351 352 350 348 346 345 341 334 322 302 292 293 287 282 282 283 281 278 276 275 274 275 276 276 275 275 273 272 271 271 270 271 271 271 272 273 273 274 274 273 272 272
337 338 340 341 342 340 337 337 333 326 312 296 290 287 283 282 282 284 282 279 277 276 276 278 278 277 276 275 274 273 272 271 271 271 271 271 272 273 274 274 274 274 274
323 327 330 333 334 334 333 331 332 330 318 307 296 288 285 282 282 283 283 281 278 277 277 277 277 277 277 276 275 274 274 273 272 273 273 273 273 274 274 274 275 275 275
309 314 317 320 322 324 327 326 327 328 323 316 306 297 293 287 284 284 285 284 282 282 280 277 276 276 275 275 274 274 274 274 274 274 274 275 275 275 275 275 275 275 275
301 305 307 309 312 313 314 314 316 318 317 313 309 304 297 293 289 287 289 287 285 284 281 278 276 274 273 274 274 274 275 275 275 275 275 275 275 275 275 275 276 275 275
294 298 301 301 303 305 304 305 305 308 309 309 308 307 304 300 296 293 290 288 286 284 282 280 279 277 276 276 276 275 275 275 275 275 276 276 276 276 276 276 275 275 275
290 291 294 294 298 299 301 300 299 299 300 300 301 302 301 300 298 295 291 288 286 284 283 282 281 280 279 279 278 277 277 277 276 276 276 276 276 276 276 276 276 276 275
287 288 289 291 294 298 299 296 295 294 296 296 297 298 298 298 297 295 292 290 287 285 284 283 282 282 282 281 281 280 279 279 278 278 278 277 277 277 277 276 276 276 276
285 287 290 290 293 298 298 295 293 293 294 294 296 296 295 295 294 292 290 288 287 285 284 283 283 283 282 282 281 281 281 280 280 280 279 279 279 279 279 278 278 277 277
284 286 287 289 293 295 295 294 293 292 292 293 294 294 294 294 293 291 290 288 287 286 286 285 285 284 284 283 283 282 282 282 281 281 281 282 282 282 281 281 280 279 278
282 284 285 287 291 293 293 293 293 292 292 292 292 292 293 292 292 291 289 288 287 287 287 286 286 286 286 285 285 284 284 284 284 284 284 284 284 284 283 282 281 281 279
283 284 285 288 290 292 292 292 293 293 293 292 292 293 292 292 291 290 289 289 288 288 288 288 288 288 288 288 287 287 287 287 287 287 287 286 286 285 284 283 282 281 280
283 286 288 288 290 292 292 293 293 292 292 292 293 293 293 292 292 291 291 291 290 290 290 290 290 290 290 289 289 289 289 289 289 289 289 288 287 286 285 284 283 281 279
284 287 288 288 290 291 292 292 291 292 292 293 293 293 293 292 292 292 293 293 293 293 293 293 292 292 292 291 291 292 292 291 291 291 290 289 288 287 286 285 283 281 279
285 286 287 289 290 290 290 290 290 290 290 291 293 293 293 294 294 294 294 294 295 295 295 295 295 294 294 294 294 294 294 294 293 293 291 290 290 289 287 286 284 281 279
286 287 288 289 289 290 289 289 290 290 290 291 293 294 294 294 295 295 295 296 296 297 297 297 296 296 296 296 297 296 296 296 295 294 293 292 291 289 288 286 284 281 279
285 286 287 287 288 288 288 289 290 290 291 292 293 294 295 295 296 296 296 297 298 298 298 299 299 299 299 299 299 299 299 297 296 295 294 293 292 290 288 286 284 282 280
283 284 285 286 287 287 287 288 289 290 291 292 293 294 295 295 296 297 298 298 299 299 300 301 301 301 301 302 302 302 301 300 299 298 297 295 293 291 289 287 286 284 282
281 281 282 282 283 284 285 286 288 289 290 292 292 293 294 296 297 297 298 299 300 301 302 303 303 304 305 305 306 306 306 305 303 301 299 297 295 294 292 291 289 287 285
278 279 280 281 282 283 285 287 288 289 290 291 292 293 294 295 296 297 298 300 301 301 303 304 305 307 308 310 312 313 313 312 310 307 304 301 299 297 295 293 291 290 288
278 279 281 283 284 285 286 287 287 288 289 290 291 292 294 295 296 297 299 300 301 303 305 307 308 312 315 317 320 322 321 320 319 318 313 308 305 304 301 299 296 294 290
283 283 284 285 285 285 285 285 286 287 287 289 290 291 293 295 297 297 299 300 303 306 308 310 315 320 323 326 329 330 331 330 329 329 327 321 317 315 313 311 305 300 294
285 285 285 284 284 284 284 284 285 286 287 288 289 291 292 294 295 296 297 300 303 306 309 315 321 326 330 333 336 338 339 340 340 339 339 336 332 328 326 324 318 311 303
284 283 283 283 283 284 284 285 285 285 286 287 288 289 290 291 293 294 296 300 303 307 315 323 329 334 337 340 341 343 345 347 347 347 346 345 344 342 338 335 333 326 316
Height
5894 5892 5890 5888 5885 5882 5879 5876 5873 5871 5870 5870 5870 5870 5870 5869 5868 5868 5867 5867 5866 5865 5864 5863 5863 5862 5862 5861 5861 5859 5858 5858 5857 5856 5855 5854 5853 5852 5852 5851 5851 5850 5850
5891 5890 5887 5884 5882 5879 5875 5872 5869 5867 5866 5865 5865 5865 5865 5864 5863 5863 5863 5862 5861 5860 5859 5858 5857 5856 5856 5855 5854 5853 5851 5850 5850 5849 5848 5847 5845 5844 5843 5842 5841 5841 5840
5888 5886 5884 5881 5879 5876 5873 5870 5867 5864 5862 5861 5860 5860 5859 5859 5858 5858 5857 5857 5856 5854 5853 5851 5850 5849 5848 5847 5846 5845 5844 5842 5841 5840 5839 5838 5837 5835 5834 5832 5831 5830 5830
5884 5882 5880 5878 5875 5873 5870 5867 5865 5862 5859 5857 5856 5855 5854 5853 5852 5852 5851 5850 5849 5848 5846 5845 5843 5842 5840 5839 5838 5836 5835 5834 5832 5831 5829 5828 5826 5825 5823 5821 5820 5819 5818
5879 5878 5876 5874 5872 5869 5867 5864 5862 5859 5857 5855 5852 5850 5849 5847 5846 5845 5845 5844 5842 5841 5840 5838 5836 5834 5832 5831 5829 5827 5826 5824 5822 5821 5819 5817 5815 5814 5811 5809 5808 5807 5805
5874 5873 5871 5870 5868 5866 5863 5861 5859 5856 5854 5852 5849 5847 5845 5843 5842 5840 5839 5837 5836 5835 5833 5831 5829 5827 5825 5822 5820 5818 5816 5814 5812 5810 5808 5806 5803 5801 5798 5796 5794 5793 5791
5868 5867 5866 5864 5863 5861 5859 5857 5855 5853 5851 5848 5846 5844 5842 5840 5837 5835 5833 5831 5829 5827 5825 5823 5821 5818 5816 5814 5811 5809 5806 5804 5801 5798 5795 5792 5789 5787 5784 5781 5779 5777 5775
5862 5861 5860 5859 5857 5856 5854 5852 5851 5849 5847 5845 5842 5840 5838 5836 5833 5830 5827 5825 5822 5820 5817 5814 5812 5809 5807 5804 5801 5798 5795 5792 5789 5786 5782 5778 5775 5771 5768 5765 5762 5760 5757
5855 5854 5853 5852 5850 5849 5848 5847 5845 5843 5841 5840 5837 5835 5833 5830 5827 5824 5821 5818 5815 5812 5808 5805 5802 5799 5796 5792 5789 5786 5782 5778 5774 5771 5767 5763 5758 5754 5750 5747 5743 5740 5738
5847 5846 5845 5844 5843 5842 5841 5840 5839 5837 5835 5833 5831 5829 5826 5824 5821 5818 5814 5810 5807 5803 5799 5795 5791 5787 5783 5779 5775 5771 5767 5762 5758 5753 5748 5744 5739 5735 5731 5728 5724 5720 5717
5840 5838 5837 5836 5835 5834 5834 5833 5831 5830 5828 5826 5824 5821 5818 5815 5812 5809 5806 5802 5797 5792 5788 5783 5779 5775 5770 5765 5760 5755 5749 5744 5739 5733 5728 5723 5719 5714 5710 5706 5703 5700 5696
5832 5830 5829 5828 5827 5827 5826 5825 5823 5822 5820 5817 5815 5812 5809 5806 5803 5800 5796 5792 5787 5781 5775 5770 5765 5760 5755 5749 5743 5737 5731 5725 5719 5714 5708 5702 5697 5693 5688 5684 5680 5677 5674
5824 5823 5821 5820 5820 5819 5817 5816 5814 5812 5810 5808 5805 5802 5799 5796 5792 5789 5785 5780 5775 5770 5763 5755 5749 5744 5738 5731 5725 5718 5712 5706 5700 5693 5687 5681 5676 5671 5666 5662 5658 5654 5651
5816 5814 5813 5812 5811 5809 5808 5806 5804 5802 5799 5797 5794 5791 5787 5784 5780 5776 5772 5767 5762 5756 5749 5741 5733 5726 5720 5713 5705 5699 5692 5686 5679 5673 5667 5661 5655 5650 5645 5640 5636 5632 5629
5807 5805 5804 5803 5801 5799 5798 5796 5793 5790 5788 5785 5782 5778 5774 5770 5766 5761 5756 5752 5748 5742 5736 5727 5718 5709 5701 5694 5687 5680 5673 5667 5660 5653 5646 5640 5634 5628 5624 5620 5616 5612 5609
5798 5796 5794 5793 5791 5789 5787 5784 5781 5778 5776 5773 5769 5765 5761 5756 5751 5746 5741 5736 5731 5726 5720 5712 5703 5694 5685 5677 5669 5662 5655 5648 5640 5633 5627 5620 5615 5609 5605 5600 5597 5594 5592
5788 5786 5784 5782 5780 5778 5775 5772 5769 5766 5763 5760 5756 5752 5747 5742 5737 5732 5726 5720 5714 5708 5703 5696 5686 5677 5669 5661 5653 5644 5636 5629 5622 5615 5609 5603 5598 5593 5588 5584 5581 5578 5575
5777 5775 5773 5771 5768 5765 5762 5759 5757 5754 5750 5746 5742 5738 5733 5728 5723 5718 5712 5705 5699 5692 5686 5680 5670 5661 5653 5644 5637 5629 5620 5613 5606 5600 5594 5588 5583 5578 5574 5570 5567 5564 5562
5765 5763 5761 5758 5755 5752 5749 5746 5743 5740 5736 5732 5728 5724 5720 5715 5709 5703 5697 5691 5684 5677 5670 5664 5656 5647 5639 5630 5623 5615 5607 5600 5593 5587 5581 5575 5571 5566 5562 5558 5555 5552 5549
5753 5751 5748 5744 5741 5739 5736 5733 5729 5726 5722 5719 5715 5710 5706 5701 5695 5689 5683 5676 5670 5663 5656 5649 5642 5634 5626 5618 5611 5604 5597 5589 5581 5574 5569 5564 5559 5554 5550 5546 5543 5540 5537
5740 5738 5734 5731 5728 5725 5722 5719 5716 5712 5709 5705 5701 5696 5692 5687 5681 5675 5669 5663 5657 5651 5644 5637 5630 5623 5616 5608 5601 5593 5586 5579 5572 5564 5559 5553 5548 5544 5539 5535 5532 5529 5526
5727 5724 5721 5717 5714 5711 5708 5705 5701 5698 5694 5691 5687 5683 5678 5674 5668 5662 5656 5651 5645 5640 5634 5627 5621 5614 5607 5600 5593 5585 5578 5571 5565 5558 5551 5545 5539 5534 5529 5526 5522 5518 5515
5714 5711 5707 5704 5701 5698 5694 5691 5688 5685 5681 5678 5674 5670 5666 5661 5656 5650 5645 5639 5634 5629 5624 5619 5613 5607 5601 5594 5587 5580 5571 5564 5557 5550 5543 5537 5532 5526 5521 5517 5513 5510 5506
5700 5696 5693 5690 5687 5683 5680 5677 5674 5671 5667 5664 5661 5657 5653 5649 5645 5640 5635 5630 5625 5620 5616 5611 5606 5600 5594 5588 5581 5574 5567 5560 5552 5544 5538 5532 5526 5521 5515 5511 5506 5503 5499
5686 5683 5679 5676 5672 5669 5666 5663 5660 5657 5654 5651 5648 5645 5642 5638 5634 5630 5626 5622 5618 5614 5610 5605 5601 5596 5590 5584 5577 5571 5564 5557 5550 5542 5536 5529 5523 5517 5512 5507 5502 5498 5494
5672 5669 5665 5661 5658 5655 5652 5649 5646 5644 5641 5638 5636 5634 5631 5628 5626 5622 5619 5615 5612 5609 5605 5601 5597 5592 5587 5581 5575 5569 5562 5555 5549 5542 5535 5529 5522 5516 5510 5504 5499 5494 5490